Voltar ao catálogo

CZ-6A DEB

AtivoPO
NORAD 60884·DEBRIS·🇨🇳 China

Lançado Aug 6, 2024 de Taiyuan Satellite Launch Center

Loading…

Próximas Passagens (próximas 24 horas)

TLE

AtualizadoSource: Space-Track

Época: Sep 14, 2026, 11:23 UTC

1 60884U 24140KP  26257.47441911  .00000616  00000-0  36880-3 0  9991
2 60884  89.0585 272.9887 0135825 316.5645  42.4895 14.01523234105867

Acompanhe CZ-6A DEB em tempo real com AllMySat

Download on the App Store